Regional Weather Roundup
Issued by NWS Green Bay, WI

Home | Current Version | Previous Version | Text Only | Print | Product List | Glossary On
Versions: 1 2 3 4 5 6 7 8 9 10 11 12 13 14 15 16 17 18 19 20 21 22 23 24 25 26 27 28 29 30 31 32 33 34 35 36 37 38 39 40 41 42 43 44 45 46 47 48 49 50
000
ASUS43 KGRB 272211
RWRGRB

NORTH-CENTRAL AND NORTHEAST WISCONSIN REGIONAL WEATHER ROUNDUP
NATIONAL WEATHER SERVICE GREEN BAY WI
500 PM CDT WED MAY 27 2015

WIZ005-009-010>012-018-019-272300-
NORTH CENTRAL WISCONSIN

CITY           SKY/WX    TMP DP  RH WIND       PRES   REMARKS
IRONWOOD       SUNNY     77  52  41 W9        29.87S
MANITOWISH WTR PTSUNNY   74  54  50 W8        29.92S
ARBOR VITAE    PTSUNNY   74  55  50 W7        29.93S
EAGLE RIVER    MOSUNNY   73  50  43 W9        29.93R
LAND O LAKES   MOSUNNY   77  49  38 W7        29.93R
RHINELANDER    MOSUNNY   76  56  49 W10       29.94F
PHILLIPS       MOSUNNY   75  57  54 SW10      29.94S
ANTIGO         MOSUNNY   72  60  66 W13G20    29.96S
TOMAHAWK       SUNNY     75  55  48 W6        29.95F
MERRILL        SUNNY     76  61  60 W12       29.96S
$$

WIZ013-073-272300-
NORTHEAST WISCONSIN

CITY           SKY/WX    TMP DP  RH WIND       PRES   REMARKS
IRON MOUNTAIN  PTSUNNY   74  55  51 W8G17     29.89R
MARINETTE      MOSUNNY   75  61  60 W9G16     29.90S
OCONTO         MOSUNNY   75  60  60 W15       29.92R
$$

WIZ017-030-035>037-045-272300-
CENTRAL WISCONSIN

CITY           SKY/WX    TMP DP  RH WIND       PRES   REMARKS
MEDFORD        MOSUNNY   73  59  60 W9        29.97F
WAUSAU         MOSUNNY   76  58  53 W13G18    29.95F
MOSINEE        MOSUNNY   73  61  64 SW13G20   29.98S
MARSHFIELD     SUNNY     76  58  53 W12       29.98S
WISC RAPIDS    SUNNY     78  54  43 W10       29.99S
STEVENS POINT  MOSUNNY   74  56  53 W8        29.98S
WAUPACA        MOSUNNY   78  56  46 W12G20    29.97S
SHAWANO        MOSUNNY   77  59  53 W13G21    29.95R
CLINTONVILLE   MOSUNNY   75  55  50 W14       29.95S
$$

WIZ038-039-048-051-272300-
FOX VALLEY

CITY           SKY/WX    TMP DP  RH WIND       PRES   REMARKS
NWS GREEN BAY  SUNNY     75  62  64 W14       29.95S
APPLETON       MOSUNNY   75  55  50 W12G20    29.97S
OSHKOSH        SUNNY     75  56  51 W9        29.98R
FOND DU LAC    SUNNY     74  57  55 W9        29.99S
$$

WIZ022-050-052-272300-
EAST CENTRAL WISCONSIN

CITY           SKY/WX    TMP DP  RH WIND       PRES   REMARKS
STURGEON BAY   SUNNY     72  59  64 SW15      29.95S
MANITOWOC      MOSUNNY   73  59  61 W10       29.97S
SHEBOYGAN      SUNNY     73  57  57 W13       29.99R
$$

LMZ563-521-522-541>543-272300-
LAKESHORE

STATION/POSITION TIME  TEMP    WIND        PRES    VSBY  WAVE
                       AIR SEA DIR/SP/G                  HT/PER
                 (UTC) (F)     (DEG/KT/KT) (MB)    (MI)  (FT/S)
SHEBOYGAN LKSHOR 2100   61     130/  7/  7 1015.5R
KEWAUNEE LKSHORE 2100   71     260/  9/ 13 1013.3R
ALGOMA MARINA    2053          270/ 16/ 22   N/A
N MID LAKE BUOY  2050   44 36  210/ 10/ 10 1013.3          2/ 5
SISTER BAY LKSHO 2103   68     230/ 14/ 17   N/A
STURGEON BAY CG  2100   71     190/  9     1014.1      6   1
MENOMINEE LKSHOR 2100   70     190/  7/ 12 1012.8F
$$



USA.gov is the U.S. government's official web portal to all federal, state and local government web resources and services.